Location: Bussy-Saint-Georges
(48.8410°N, 2.7017°E)
Time: 15:03:05
(UTC+00:00)

Gbstr 26 Del rocket - Pass Details

Date: 18 October 2021
Orbit: 492 x 1263 km, 51.8° (Epoch: 29 November)

Event Time Altitude Azimuth Distance (km) Brightness Sun altitude
Rises 17:34:54 0° 288° (WNW) 3,648 8.4 -7.5°
Reaches altitude 10° 17:37:20 10° 289° (WNW) 2,803 7.6 -7.9°
Maximum altitude 17:44:16 86° 20° (NNE) 1,157 4.4 -9.1°
Drops below altitude 10° 17:52:16 10° 110° (ESE) 3,211 6.1 -10.4°
Enters shadow 17:52:26 - 110° (ESE) 3,267 6.2 -10.4°
